TimeCST,TemperatureF,Dew PointF,Humidity,Sea Level PressureIn,VisibilityMPH,Wind Direction,Wind SpeedMPH,Gust SpeedMPH,PrecipitationIn,Events,Conditions,WindDirDegrees,DateUTC
12:15 AM,39.6,32.4,75,29.98,10.0,WNW,19.6,27.6,N/A,,Mostly Cloudy,290,2012-11-23 06:15:00
12:35 AM,39.6,33.1,78,29.98,10.0,West,17.3,26.5,N/A,,Overcast,280,2012-11-23 06:35:00
12:55 AM,39.6,32.5,76,29.98,10.0,West,16.1,23.0,N/A,,Scattered Clouds,280,2012-11-23 06:55:00
1:15 AM,38.5,32.0,78,29.98,10.0,West,15.0,-,N/A,,Clear,280,2012-11-23 07:15:00
1:35 AM,38.3,32.0,78,29.98,10.0,West,15.0,23.0,N/A,,Clear,280,2012-11-23 07:35:00
1:55 AM,38.3,32.0,78,29.98,10.0,West,15.0,25.3,N/A,,Clear,280,2012-11-23 07:55:00
2:15 AM,38.3,32.0,78,29.98,10.0,West,16.1,23.0,N/A,,Clear,270,2012-11-23 08:15:00
2:35 AM,38.3,32.0,78,29.98,10.0,West,17.3,23.0,N/A,,Clear,270,2012-11-23 08:35:00
2:55 AM,38.3,32.0,78,29.98,10.0,West,21.9,27.6,N/A,,Clear,260,2012-11-23 08:55:00
3:15 AM,38.3,32.0,78,29.98,10.0,West,21.9,27.6,N/A,,Clear,270,2012-11-23 09:15:00
3:35 AM,38.1,31.5,77,29.97,10.0,West,21.9,28.8,N/A,,Clear,270,2012-11-23 09:35:00
3:55 AM,38.3,30.6,74,29.98,10.0,West,20.7,26.5,N/A,,Mostly Cloudy,270,2012-11-23 09:55:00
4:15 AM,37.6,30.2,75,29.98,10.0,West,24.2,42.6,N/A,,Mostly Cloudy,280,2012-11-23 10:15:00
4:35 AM,36.0,27.3,71,29.99,10.0,West,20.7,32.2,N/A,,Mostly Cloudy,280,2012-11-23 10:35:00
4:55 AM,35.1,26.2,70,30.00,10.0,West,20.7,28.8,N/A,,Overcast,280,2012-11-23 10:55:00
5:15 AM,35.1,26.1,70,30.00,10.0,West,20.7,31.1,N/A,,Overcast,280,2012-11-23 11:15:00
5:35 AM,34.7,25.7,70,30.00,10.0,West,20.7,31.1,N/A,,Overcast,280,2012-11-23 11:35:00
5:55 AM,34.7,25.7,70,30.01,10.0,West,19.6,31.1,N/A,,Overcast,280,2012-11-23 11:55:00
6:15 AM,34.7,25.9,70,30.01,10.0,West,20.7,29.9,N/A,,Overcast,280,2012-11-23 12:15:00
6:35 AM,34.5,24.8,68,30.02,10.0,WNW,27.6,36.8,N/A,,Overcast,290,2012-11-23 12:35:00
6:55 AM,33.1,22.8,66,30.04,10.0,WNW,28.8,40.3,N/A,,Overcast,290,2012-11-23 12:55:00
7:15 AM,32.0,22.3,67,30.05,10.0,WNW,23.0,34.5,N/A,,Overcast,290,2012-11-23 13:15:00
7:35 AM,32.4,22.6,67,30.05,10.0,WNW,23.0,33.4,N/A,,Overcast,290,2012-11-23 13:35:00
7:55 AM,32.0,22.1,67,30.07,10.0,WNW,25.3,42.6,N/A,,Overcast,290,2012-11-23 13:55:00
8:15 AM,31.6,22.3,68,30.07,10.0,WNW,26.5,33.4,N/A,,Overcast,290,2012-11-23 14:15:00
8:35 AM,31.6,21.9,67,30.08,10.0,West,27.6,38.0,N/A,,Overcast,280,2012-11-23 14:35:00
8:55 AM,30.9,20.7,66,30.10,10.0,WNW,20.7,40.3,N/A,,Overcast,290,2012-11-23 14:55:00
9:15 AM,30.9,21.0,67,30.11,10.0,WNW,32.2,36.8,N/A,,Overcast,300,2012-11-23 15:15:00
9:35 AM,31.1,21.6,68,30.11,10.0,WNW,25.3,32.2,N/A,,Overcast,300,2012-11-23 15:35:00
9:55 AM,31.5,20.5,64,30.13,10.0,WNW,23.0,33.4,N/A,,Overcast,290,2012-11-23 15:55:00
10:15 AM,30.2,19.4,64,30.14,10.0,WNW,29.9,38.0,N/A,,Overcast,300,2012-11-23 16:15:00
10:35 AM,30.6,19.9,65,30.14,10.0,WNW,18.4,27.6,N/A,,Overcast,290,2012-11-23 16:35:00
10:55 AM,32.0,19.4,60,30.14,10.0,WNW,25.3,34.5,N/A,,Overcast,300,2012-11-23 16:55:00
11:15 AM,32.0,20.5,63,30.14,10.0,WNW,23.0,33.4,N/A,,Overcast,290,2012-11-23 17:15:00
11:35 AM,32.0,19.9,61,30.15,10.0,WNW,21.9,32.2,N/A,,Overcast,290,2012-11-23 17:35:00
11:55 AM,32.5,19.9,60,30.15,10.0,WNW,27.6,34.5,N/A,,Overcast,300,2012-11-23 17:55:00
12:15 PM,32.0,19.2,59,30.16,10.0,WNW,17.3,32.2,N/A,,Overcast,290,2012-11-23 18:15:00
12:35 PM,32.0,19.6,60,30.16,10.0,WNW,20.7,32.2,N/A,,Overcast,290,2012-11-23 18:35:00
12:55 PM,31.8,19.2,60,30.16,10.0,WNW,21.9,33.4,N/A,,Overcast,290,2012-11-23 18:55:00
1:15 PM,32.2,19.6,60,30.16,10.0,WNW,19.6,29.9,N/A,,Overcast,290,2012-11-23 19:15:00
1:35 PM,32.4,19.2,58,30.16,10.0,WNW,25.3,31.1,N/A,,Mostly Cloudy,300,2012-11-23 19:35:00
1:55 PM,32.0,18.9,58,30.17,10.0,WNW,24.2,34.5,N/A,,Scattered Clouds,300,2012-11-23 19:55:00
2:15 PM,32.0,18.3,57,30.18,10.0,WNW,23.0,34.5,N/A,,Scattered Clouds,300,2012-11-23 20:15:00
2:35 PM,31.8,18.0,57,30.18,10.0,WNW,23.0,32.2,N/A,,Scattered Clouds,300,2012-11-23 20:35:00
2:55 PM,32.0,18.3,57,30.19,10.0,WNW,23.0,29.9,N/A,,Mostly Cloudy,290,2012-11-23 20:55:00
3:15 PM,31.1,17.2,57,30.20,10.0,WNW,20.7,31.1,N/A,,Scattered Clouds,290,2012-11-23 21:15:00
3:35 PM,30.6,17.1,57,30.20,10.0,WNW,21.9,27.6,N/A,,Clear,290,2012-11-23 21:35:00
3:55 PM,30.0,16.5,57,30.21,10.0,WNW,20.7,27.6,N/A,,Clear,290,2012-11-23 21:55:00
4:15 PM,29.3,17.1,60,30.22,10.0,WNW,18.4,21.9,N/A,,Clear,290,2012-11-23 22:15:00
4:35 PM,28.9,16.7,60,30.23,10.0,WNW,15.0,20.7,N/A,,Clear,290,2012-11-23 22:35:00
4:55 PM,28.8,17.4,63,30.23,10.0,WNW,12.7,18.4,N/A,,Clear,290,2012-11-23 22:55:00
5:15 PM,28.4,17.6,64,30.24,10.0,WNW,11.5,17.3,N/A,,Clear,290,2012-11-23 23:15:00
5:35 PM,28.4,18.0,65,30.24,10.0,WNW,16.1,-,N/A,,Clear,300,2012-11-23 23:35:00
5:55 PM,28.2,18.1,66,30.25,10.0,WNW,13.8,-,N/A,,Clear,290,2012-11-23 23:55:00
6:15 PM,27.9,18.3,67,30.25,10.0,WNW,12.7,-,N/A,,Clear,290,2012-11-24 00:15:00
6:35 PM,27.5,18.5,69,30.26,10.0,WNW,13.8,-,N/A,,Clear,300,2012-11-24 00:35:00
6:55 PM,27.5,18.5,69,30.26,10.0,WNW,11.5,-,N/A,,Clear,300,2012-11-24 00:55:00
7:15 PM,26.6,18.5,71,30.26,10.0,NW,11.5,-,N/A,,Clear,310,2012-11-24 01:15:00
7:35 PM,26.8,18.9,72,30.26,10.0,NW,11.5,-,N/A,,Scattered Clouds,310,2012-11-24 01:35:00
7:55 PM,26.4,18.9,73,30.26,10.0,WNW,9.2,-,N/A,,Mostly Cloudy,290,2012-11-24 01:55:00
8:15 PM,26.4,19.0,74,30.25,10.0,NW,12.7,-,N/A,,Overcast,310,2012-11-24 02:15:00
8:35 PM,26.6,19.4,74,30.25,10.0,WNW,9.2,-,N/A,,Overcast,300,2012-11-24 02:35:00
8:55 PM,26.2,19.4,75,30.25,10.0,WNW,6.9,-,N/A,,Overcast,300,2012-11-24 02:55:00
9:15 PM,25.2,19.4,79,30.25,10.0,WNW,8.1,-,N/A,,Mostly Cloudy,290,2012-11-24 03:15:00
9:35 PM,25.7,20.1,79,30.25,10.0,WNW,6.9,-,N/A,,Overcast,290,2012-11-24 03:35:00
9:55 PM,26.2,19.9,77,30.25,10.0,WNW,10.4,-,N/A,,Overcast,300,2012-11-24 03:55:00
10:15 PM,26.2,19.9,77,30.25,10.0,WNW,8.1,-,N/A,,Overcast,300,2012-11-24 04:15:00
10:35 PM,26.4,20.1,77,30.25,10.0,WNW,6.9,-,N/A,,Overcast,300,2012-11-24 04:35:00
10:55 PM,27.0,19.4,73,30.25,10.0,NW,11.5,-,N/A,,Overcast,320,2012-11-24 04:55:00
11:15 PM,26.2,19.8,76,30.26,10.0,WNW,9.2,-,N/A,,Overcast,290,2012-11-24 05:15:00
11:35 PM,25.9,19.9,78,30.25,10.0,WNW,9.2,-,N/A,,Overcast,290,2012-11-24 05:35:00
11:55 PM,26.1,20.3,79,30.26,10.0,West,8.1,-,N/A,,Overcast,280,2012-11-24 05:55:00